[[{"header":{"parameterUnit":"m.s-1","parameterCategory":1,"la1":30.2991,"la2":30.254,"lo1":-89.0895,"lo2":-89.0444,"dy":0.0017,"dx":0.0017,"nx":28,"ny":28,"refTime":"2024-05-19T21:00:00:Z","depth":0,"parameterNumber":2,"parameterNumberName":"U-component_of_WINDS"},"data":[0,0,0,0,0,0,0,0,0,0,0,0,0,0,0,0,0,0,0,0,0,0,0,0,0,0,0,0,0,0,0,0,0,0,0,0,0,0,0,0,0,0,0,0,0,0,0,0,0,0,0,0,0,0,0,0,0,0,-2.4936,-2.4935,0,-2.4868,-2.4867,-2.4866,-2.4796,-2.4795,-2.4794,-2.4793,-2.4721,-2.472,-2.4719,0,0,0,0,0,0,0,0,0,0,0,0,0,-2.5005,-2.5004,-2.4936,-2.4935,-2.4934,-2.4868,-2.4867,-2.4866,-2.4796,-2.4795,-2.4794,-2.4793,-2.4721,-2.472,-2.4719,0,0,0,0,0,0,0,0,0,0,0,0,0,-2.496,-2.5004,-2.4936,-2.4891,-2.4887,-2.4868,-2.4867,-2.4865,-2.4796,-2.4795,-2.4793,-2.4792,-2.4722,-2.472,-2.4719,-2.4738,0,0,-2.4714,-2.4713,0,0,0,0,0,0,0,0,-2.4962,-2.4957,-2.4899,-2.4894,-2.4889,-2.4839,-2.4865,-2.4823,-2.4797,-2.4831,-2.4793,-2.4791,-2.4761,-2.4756,-2.4747,-2.4735,-2.4731,-2.4714,-2.4713,-2.4712,-2.4712,0,0,0,0,0,0,0,-2.4966,-2.496,-2.4909,-2.4898,-2.4892,-2.4875,-2.4866,-2.4856,-2.4805,-2.4827,-2.4822,-2.4815,-2.4758,-2.4748,-2.4744,-2.473,-2.4714,-2.4713,-2.4712,-2.4711,-2.4731,-2.4733,0,0,0,0,0,0,-2.4976,-2.4963,-2.4911,-2.4907,-2.4923,-2.4874,-2.4865,-2.4856,-2.4805,-2.4795,-2.4816,-2.4812,-2.4752,-2.4746,-2.4742,-2.4761,-2.4712,-2.4711,-2.471,-2.473,-2.4732,-2.4733,0,0,0,0,0,0,-2.4978,-2.4972,-2.4914,-2.4933,-2.4925,-2.4875,-2.4865,-2.4856,-2.4846,-2.4796,-2.4787,-2.4816,-2.475,-2.4744,-2.474,-2.4757,-2.471,-2.4709,-2.4728,-2.473,-2.4732,-2.4799,0,0,0,0,0,0,-2.498,-2.4973,-2.498,-2.4934,-2.4924,-2.4913,-2.4866,-2.4855,-2.4843,-2.4837,-2.4793,-2.4784,-2.4749,-2.4742,-2.4738,-2.4754,-2.4708,-2.4726,-2.4729,-2.4732,-2.4795,-2.4803,-2.481,0,0,0,0,0,-2.4983,-2.5001,-2.498,-2.4974,-2.4931,-2.4914,-2.4908,-2.4867,-2.4845,-2.4851,-2.482,-2.4786,-2.4757,-2.4743,-2.4737,-2.4753,-2.4725,-2.4728,-2.4732,-2.4792,-2.4802,-2.481,0,0,0,0,0,0,-2.5048,-2.4994,-2.4971,-2.4974,-2.495,-2.4903,-2.4909,-2.4879,-2.486,-2.4855,-2.4804,-2.4795,-2.4797,-2.4774,-2.476,-2.4769,-2.4736,-2.4738,-2.4783,-2.4792,-2.48,-2.4805,-2.4706,0,0,0,0,0,-2.5064,-2.5055,-2.5007,-2.5015,-2.5004,-2.4959,-2.495,-2.4921,-2.4893,-2.4882,-2.485,-2.4824,-2.4809,-2.4799,-2.4783,-2.4792,-2.4781,-2.4801,-2.4808,-2.4815,-2.4817,-2.482,-2.4828,-2.4744,-2.4744,-2.4744,0,0,-2.5094,-2.5063,-2.506,-2.5028,-2.5005,-2.4997,-2.4951,-2.4943,-2.4937,-2.488,-2.4875,-2.4851,-2.4818,-2.4821,-2.4821,-2.4803,-2.4838,-2.4819,-2.4824,-2.4823,-2.4825,-2.4833,-2.484,-2.4746,-2.4746,-2.4746,0,0,-2.5146,-2.5122,-2.5126,-2.5105,-2.5071,-2.5042,-2.5043,-2.5001,-2.4983,-2.4977,-2.4935,-2.4926,-2.4901,-2.4879,-2.4865,-2.4911,-2.4879,-2.4908,-2.4947,-2.4951,-2.4957,-2.4963,-2.4979,-2.4986,-2.491,-2.491,-2.491,0,-2.5188,-2.5174,-2.5132,-2.5127,-2.5114,-2.5065,-2.5068,-2.505,-2.5013,-2.5005,-2.4985,-2.4954,-2.4928,-2.4926,-2.4937,-2.4928,-2.4927,-2.4911,-2.496,-2.4965,-2.497,-2.4985,-2.4991,-2.4914,-2.4914,-2.4913,-2.4913,0,-2.5227,-2.5219,-2.5226,-2.5192,-2.518,-2.518,-2.5138,-2.5131,-2.5103,-2.5076,-2.507,-2.5039,-2.5015,-2.5013,-2.4985,-2.5006,-2.4996,-2.497,-2.4935,-2.4982,-2.4995,-2.5001,-2.4919,-2.4918,-2.4917,-2.4916,0,0,-2.5316,-2.5261,-2.5264,-2.5249,-2.5209,-2.5201,-2.52,-2.5177,-2.5172,-2.5149,-2.5146,-2.5127,-2.5102,-2.5086,-2.5057,-2.5061,-2.5099,-2.5033,-2.5031,-2.5046,-2.512,-2.514,-2.5147,-2.5078,-2.5079,-2.508,-2.5123,0,-2.536,-2.5354,-2.5317,-2.5321,-2.5313,-2.5266,-2.5265,-2.5241,-2.5215,-2.5204,-2.5176,-2.5163,-2.5132,-2.5122,-2.5124,-2.5094,-2.5113,-2.5091,-2.5074,-2.5074,-2.5083,-2.5154,-2.5175,-2.5217,-2.5128,-2.5129,-2.5129,0,-2.541,-2.5391,-2.5395,-2.5357,-2.5352,-2.5351,-2.5328,-2.5319,-2.5291,-2.5272,-2.5256,-2.5223,-2.5218,-2.5187,-2.518,-2.5166,-2.5157,-2.5142,-2.5142,-2.5138,-2.5104,-2.5151,-2.5229,-2.5235,-2.5137,-2.5136,-2.5136,0,-2.5475,-2.545,-2.5449,-2.5438,-2.5393,-2.5394,-2.5375,-2.5346,-2.5335,-2.5315,-2.5308,-2.5288,-2.5276,-2.5262,-2.5224,-2.5205,-2.5222,-2.5187,-2.5205,-2.5207,-2.521,-2.521,-2.5287,-2.5206,-2.5206,-2.5206,-2.5206,0,-2.5527,-2.5531,-2.5478,-2.5477,-2.548,-2.5438,-2.5443,-2.542,-2.5394,-2.5388,-2.5347,-2.5343,-2.5294,-2.5284,-2.5255,-2.5254,-2.5249,-2.5233,-2.5225,-2.5237,-2.5239,-2.5229,-2.5225,-2.5208,-2.5207,-2.5207,-2.5207,0,-2.5599,-2.5563,-2.5559,-2.5518,-2.5508,-2.5512,-2.5477,-2.5474,-2.5448,-2.5441,-2.5437,-2.5394,-2.538,-2.5342,-2.5318,-2.5299,-2.5306,-2.5291,-2.5315,-2.531,-2.533,-2.5329,-2.5403,-2.541,-2.5327,-2.5327,-2.5328,0,-2.5634,-2.5636,-2.5596,-2.5589,-2.5573,-2.5563,-2.5552,-2.5511,-2.5502,-2.5471,-2.5472,-2.5456,-2.544,-2.542,-2.5386,-2.5368,-2.5353,-2.538,-2.5349,-2.5361,-2.5352,-2.5352,-2.5352,-2.5386,-2.5387,-2.5388,-2.5389,0,-2.5701,-2.5683,-2.567,-2.565,-2.5639,-2.5622,-2.5602,-2.5599,-2.5553,-2.5545,-2.553,-2.5518,-2.5495,-2.5478,-2.5455,-2.5436,-2.5405,-2.5399,-2.5402,-2.5413,-2.5427,-2.5419,-2.5332,-2.5397,-2.5396,-2.5396,-2.5395,-2.5395,-2.5754,-2.5755,-2.5726,-2.5713,-2.5694,-2.5677,-2.5673,-2.5647,-2.5634,-2.5612,-2.5589,-2.5577,-2.555,-2.5516,-2.5499,-2.5489,-2.5473,-2.5478,-2.5479,-2.548,-2.5485,-2.543,-2.5485,-2.5485,-2.5484,-2.5484,-2.5484,0,-2.5818,-2.5799,-2.5787,-2.5761,-2.5751,-2.5724,-2.5701,-2.5694,-2.5685,-2.5662,-2.5648,-2.5632,-2.5617,-2.5583,-2.5565,-2.5563,-2.5549,-2.556,-2.5559,-2.5555,-2.5501,-2.55,-2.5572,-2.5572,-2.5572,-2.5572,-2.5572,-2.5572,-2.5851,-2.5849,-2.5829,-2.5818,-2.5798,-2.5787,-2.5776,-2.5761,-2.5742,-2.5727,-2.5714,-2.5693,-2.5666,-2.5645,-2.563,-2.562,-2.5615,-2.5631,-2.5617,-2.5567,-2.5559,-2.5551,-2.5549,-2.563,-2.563,-2.5671,-2.5672,-2.5672]},{"header":{"parameterUnit":"m.s-1","parameterCategory":1,"la1":30.2991,"la2":30.254,"lo1":-89.0895,"lo2":-89.0444,"dy":0.0017,"dx":0.0017,"nx":28,"ny":28,"refTime":"2024-05-19T21:00:00:Z","depth":0,"parameterNumber":3,"parameterNumberName":"V-component_of_WINDS"},"data":[0,0,0,0,0,0,0,0,0,0,0,0,0,0,0,0,0,0,0,0,0,0,0,0,0,0,0,0,0,0,0,0,0,0,0,0,0,0,0,0,0,0,0,0,0,0,0,0,0,0,0,0,0,0,0,0,0,0,3.2348,3.2349,0,3.2404,3.2405,3.2406,3.248,3.2481,3.2483,3.2484,3.2538,3.2538,3.2538,0,0,0,0,0,0,0,0,0,0,0,0,0,3.2302,3.2303,3.2348,3.2349,3.2349,3.2404,3.2405,3.2406,3.248,3.2482,3.2483,3.2484,3.2537,3.2538,3.2538,0,0,0,0,0,0,0,0,0,0,0,0,0,3.2336,3.2303,3.2348,3.2393,3.2398,3.2404,3.2405,3.2406,3.248,3.2482,3.2483,3.2485,3.2537,3.2538,3.2538,3.2503,0,0,3.2539,3.254,0,0,0,0,0,0,0,0,3.2334,3.2338,3.2386,3.239,3.2395,3.2437,3.2409,3.2439,3.2479,3.2448,3.2484,3.2486,3.2502,3.2506,3.2512,3.2506,3.2508,3.2539,3.254,3.254,3.254,0,0,0,0,0,0,0,3.2332,3.2336,3.237,3.2386,3.2392,3.241,3.2417,3.2415,3.2464,3.2451,3.2457,3.2463,3.2505,3.2512,3.2514,3.2509,3.2539,3.254,3.254,3.254,3.2479,3.2477,0,0,0,0,0,0,3.2323,3.2334,3.2368,3.2372,3.2369,3.2409,3.2417,3.2422,3.2464,3.2473,3.2461,3.2466,3.251,3.2513,3.2516,3.248,3.254,3.254,3.254,3.2481,3.2479,3.2477,0,0,0,0,0,0,3.2322,3.2326,3.2366,3.2354,3.2361,3.2408,3.2413,3.2422,3.2428,3.2472,3.2481,3.2459,3.2512,3.2516,3.2507,3.2483,3.254,3.2541,3.2483,3.248,3.2478,3.2405,0,0,0,0,0,0,3.232,3.2325,3.2312,3.2354,3.2361,3.2356,3.2411,3.2422,3.2429,3.2436,3.2472,3.248,3.2513,3.2506,3.2507,3.2484,3.2541,3.2485,3.2482,3.2478,3.241,3.24,3.2392,0,0,0,0,0,3.2318,3.2289,3.2311,3.2315,3.2347,3.2355,3.2359,3.24,3.2427,3.2415,3.2443,3.2478,3.2485,3.2504,3.2506,3.2483,3.2487,3.2483,3.2479,3.2414,3.2402,3.2392,0,0,0,0,0,0,3.2241,3.2295,3.2321,3.2303,3.2324,3.2367,3.2353,3.2386,3.2398,3.2404,3.2453,3.246,3.2445,3.2463,3.2484,3.2453,3.2491,3.2487,3.2441,3.2431,3.2422,3.2418,3.2541,0,0,0,0,0,3.2223,3.2226,3.2272,3.2252,3.2261,3.2305,3.231,3.234,3.2363,3.2372,3.2399,3.2419,3.2426,3.2429,3.2438,3.2413,3.2422,3.2398,3.2389,3.2382,3.2378,3.2367,3.2357,3.2463,3.2463,3.2463,0,0,3.2184,3.2213,3.2212,3.2237,3.2257,3.2258,3.2312,3.2311,3.2312,3.2371,3.2365,3.2386,3.2412,3.2395,3.2389,3.241,3.2351,3.2376,3.237,3.237,3.2362,3.2352,3.2343,3.246,3.246,3.2461,0,0,3.2113,3.2136,3.2123,3.2142,3.2172,3.2202,3.2198,3.2237,3.2254,3.2249,3.2294,3.2296,3.2306,3.2323,3.2333,3.2271,3.2304,3.2272,3.2225,3.2214,3.2206,3.2199,3.2178,3.2169,3.2268,3.2268,3.2268,0,3.206,3.2065,3.2111,3.2108,3.2118,3.2174,3.2161,3.2177,3.2207,3.2212,3.2235,3.2251,3.2272,3.2261,3.2246,3.2252,3.225,3.2268,3.2204,3.2197,3.2191,3.2171,3.2163,3.2264,3.2264,3.2265,3.2265,0,3.2,3.2002,3.1988,3.2018,3.2027,3.2018,3.2063,3.2066,3.2095,3.2122,3.2117,3.2145,3.216,3.216,3.2188,3.2153,3.2165,3.2195,3.2235,3.2176,3.2159,3.2151,3.2258,3.2259,3.2261,3.2262,0,0,3.1881,3.1939,3.1933,3.1948,3.1986,3.1988,3.1983,3.2,3.2002,3.2021,3.2018,3.2026,3.2055,3.2066,3.2096,3.2087,3.2037,3.2118,3.212,3.2103,3.2002,3.198,3.197,3.206,3.2058,3.2057,3.2,0,3.1819,3.1814,3.1856,3.1839,3.1843,3.1896,3.1891,3.1914,3.1939,3.1945,3.1973,3.1979,3.2016,3.2023,3.2016,3.2045,3.2018,3.2049,3.2057,3.2056,3.2049,3.1961,3.1937,3.1881,3.1993,3.1992,3.1991,0,3.1745,3.1762,3.1746,3.1787,3.179,3.1785,3.1805,3.181,3.1837,3.1856,3.187,3.1905,3.1902,3.194,3.1937,3.1958,3.1963,3.1978,3.1977,3.1979,3.202,3.1961,3.1864,3.1856,3.1981,3.1982,3.1982,0,3.1661,3.168,3.1674,3.1685,3.1732,3.1727,3.1746,3.1775,3.1783,3.18,3.1806,3.1822,3.183,3.1841,3.188,3.1904,3.1872,3.1913,3.1888,3.1887,3.1879,3.1879,3.1782,3.1882,3.1882,3.1882,3.1882,0,3.1587,3.1575,3.1638,3.1634,3.1623,3.1671,3.1658,3.1682,3.1707,3.1709,3.1755,3.1755,3.1806,3.1812,3.1842,3.1835,3.1838,3.1854,3.1862,3.185,3.1848,3.1854,3.1859,3.188,3.188,3.1881,3.1881,0,3.1491,3.1533,3.153,3.1575,3.1586,3.1576,3.1614,3.1612,3.1641,3.1642,3.1645,3.1691,3.17,3.174,3.1758,3.1778,3.1761,3.1777,3.1753,3.1758,3.1731,3.1733,3.1635,3.1625,3.173,3.1729,3.1728,0,3.1442,3.1434,3.148,3.1485,3.1502,3.1509,3.1519,3.1566,3.1573,3.1604,3.1598,3.1612,3.1625,3.1637,3.1671,3.1686,3.1702,3.1667,3.1705,3.1693,3.1703,3.1703,3.1703,3.1659,3.1657,3.1656,3.1655,0,3.1349,3.137,3.1383,3.1403,3.1413,3.143,3.145,3.1451,3.1504,3.151,3.1521,3.1532,3.1551,3.1564,3.1585,3.1603,3.1638,3.1644,3.1639,3.1626,3.1613,3.162,3.1731,3.1645,3.1646,3.1647,3.1648,3.1648,3.1276,3.1272,3.1304,3.1317,3.1337,3.1355,3.1356,3.1386,3.1397,3.1418,3.1445,3.1453,3.148,3.1512,3.1528,3.1534,3.1554,3.1546,3.1544,3.1542,3.1536,3.1612,3.1538,3.1538,3.1539,3.1539,3.1539,0,3.1186,3.121,3.1221,3.1249,3.1259,3.1292,3.1317,3.1322,3.1329,3.1353,3.1366,3.1379,3.1392,3.1427,3.1444,3.1442,3.1458,3.1445,3.1445,3.1449,3.1518,3.1521,3.1431,3.1431,3.1431,3.1431,3.1431,3.1431,3.1141,3.1138,3.1163,3.117,3.1194,3.1203,3.1214,3.1231,3.1251,3.1264,3.1276,3.1299,3.1328,3.1347,3.136,3.1371,3.1375,3.1356,3.1371,3.1434,3.1444,3.1454,3.1457,3.1356,3.1356,3.1302,3.1302,3.1301]}]]